Location: Multiple Mirror Telescope
(31.6889°N, 110.8853°W)
Time: 09:17:36
(UTC-07:00)

Hubble Space Telescope - Pass Details

Date: 04 June 2024
Orbit: 511 x 515 km, 28.5° (Epoch: 14 June)

Event Time Altitude Azimuth Distance (km) Brightness Sun altitude
Rises 21:08:32 0° 262° (W) 2,612 4.9 -18.6°
Reaches altitude 10° 21:11:35 10° 238° (WSW) 1,724 3.5 -19.1°
Enters shadow 21:13:31 14° 209° (SSW) 1,462 2.8 -19.4°
